1300752027575,99.4914
1300752087575,98.9699
1300752147575,98.9712
1300752207575,99.2969
1300752267575,99.5025
1300752327575,99.3772
1300752387575,99.2007
1300752447575,99.3119
1300752507575,98.9636
1300752567575,99.2842
1300752627575,98.6876
1300752687575,99.4133
1300752747575,99.4890
1300752807575,98.7705
1300752867575,99.4860
1300752927575,98.8113
1300752987575,98.8461
1300753047575,99.5754
1300753107575,99.4781
1300753167575,99.3124
1300753227575,99.5140
1300753287575,98.9363
1300753347575,98.7889
1300753407575,99.0324
1300753467575,98.9547
1300753527575,98.9381
1300753587575,99.2462
1300753647575,99.8550
1300753707575,99.0150
1300753767575,98.6373
1300753827575,98.7813
1300753887575,98.9694
1300753947575,99.0809
1300754007575,99.1067
1300754067575,99.3540
1300754127575,98.9030
1300754187575,99.1561
1300754247575,98.9258
1300754307575,99.1756
1300754367575,98.8415
1300754427575,99.1066
1300754487575,98.9709
1300754547575,98.7976
1300754607575,99.2692
1300754667575,98.9806
1300754727575,98.9792
1300754787575,99.1516
1300754847575,98.9515
1300754907575,98.7323
1300754967575,98.8815
1300755027575,99.0711
1300755087575,98.5585
1300755147575,99.3063
1300755207575,99.4809
1300755267575,99.1777
1300755327575,99.1557
1300755387575,98.7372
1300755447575,98.9755
1300755507575,98.7066
1300755567575,99.3015
1300755627587,99.0740
1300755687587,99.3149
1300755747587,98.9669
1300755807587,99.1411
1300755867587,99.4129
1300755927587,99.2933
1300755987587,99.0831
1300756047587,99.1584
1300756107587,98.4741
1300756167587,99.1172
1300756227587,98.7405
1300756287587,98.6680
1300756347587,98.6824
1300756407587,98.8149
1300756467587,98.6020
1300756527587,98.5218
1300756587587,98.2102
1300756647587,98.5613
1300756707587,98.6433
1300756767587,99.0753
1300756827587,98.5117
1300756887587,98.6808
1300756947587,99.1119
1300757007587,98.7060
1300757067587,98.4101
1300757127587,98.9773
1300757187587,98.6573
1300757247587,98.8272
1300757307587,98.5671
1300757367587,98.7655
1300757427587,98.8831
1300757487587,98.7430
1300757547587,98.6254
1300757607587,99.2217
1300757667587,99.0686
1300757727587,98.4836
1300757787587,98.0232
1300757847587,98.6257
1300757907587,98.6335
1300757967587,99.1361
1300758027587,98.7203
1300758087587,98.6538
1300758147587,98.5596
1300758207587,98.6669
1300758267587,98.7136
1300758327587,98.8341
1300758387587,99.2188
1300758447587,98.7074
1300758507587,98.2310
1300758567587,99.2912
1300758627587,98.5207
1300758687587,98.8300
1300758747587,98.9092
1300758807587,98.3012
1300758867587,99.0637
1300758927587,99.1009
1300758987587,98.4127
1300759047587,98.8401
1300759107587,98.4819
1300759167587,98.6090
1300759227599,99.2725
1300759287599,98.4990
1300759347599,98.3132
1300759407599,99.1139
1300759467599,98.6724
1300759527599,99.1458
1300759587599,99.1591
1300759647599,98.6562
1300759707599,98.6824
1300759767599,99.1205
1300759827599,98.5780
1300759887599,98.4831
1300759947599,98.2905
1300760007599,98.5955
1300760067599,98.5309
1300760127599,98.5681
1300760187599,98.5048
1300760247599,98.9500
1300760307599,98.8610
1300760367599,98.5656
1300760427599,98.3943
1300760487599,98.4931
1300760547599,98.6499
1300760607599,99.4611
1300760667599,98.2011
1300760727599,98.6145
1300760787599,98.3940
1300760847599,98.6012
1300760907599,98.6836
1300760967599,98.8682
1300761027599,98.6236
1300761087599,98.6682
1300761147599,98.9862
1300761207599,98.5791
1300761267599,99.1202
1300761327599,99.0099
1300761387599,98.4892
1300761447599,98.7429
1300761507599,98.6643
1300761567599,98.5507
1300761627599,98.7488
1300761687599,99.0471
1300761747599,98.5251
1300761807599,98.5480
1300761867599,98.8886
1300761927599,98.0583
1300761987599,98.8646
1300762047599,99.2538
1300762107599,99.0238
1300762167599,98.3979
1300762227599,98.4899
1300762287599,98.6520
1300762347599,98.9134
1300762407599,98.7181
1300762467599,99.1069
1300762527599,98.5699
1300762587599,98.8383
1300762647599,98.7954
1300762707599,98.7713
1300762767599,98.9597
1300762827611,98.6708
1300762887611,98.8805
1300762947611,98.8473
1300763007611,98.9301
1300763067611,99.0488
1300763127611,98.7119
1300763187611,99.2970
1300763247611,98.8378
1300763307611,98.9473
1300763367611,99.1825
1300763427611,98.7175
1300763487611,98.6154
1300764027611,98.9376
1300764087611,98.3627
1300764147611,98.6908
1300764207611,99.1565
1300764267611,98.9104
1300764327611,99.1208
1300764387611,99.0342
1300764447611,99.4562
1300764507611,99.1000
1300764567611,99.6464
1300764627611,99.5103
1300764687611,99.1309
1300764747611,99.6112
1300764807611,99.5591
1300764867611,99.1181
1300764927611,99.6115
1300764987611,99.5670
1300765047611,99.3767
1300765107611,99.5080
1300765167611,99.3475
1300765227611,99.5218
1300765287611,99.1650
1300765347611,99.3134
1300765407611,99.1820
1300765467611,99.6999
1300765527611,99.3708
1300765587611,99.6668
1300765647611,99.0955
1300765707611,99.7854
1300765767611,99.7047
1300765827611,99.1465
1300765887611,99.3409
1300765947611,99.0760
1300766007611,99.6084
1300766067611,99.2334
1300766127611,99.0695
1300766187611,99.5690
1300766247611,99.2714
1300766307611,99.4034
1300766367611,99.2475
1300766427623,98.8849
1300766487623,99.5126
1300766547623,99.0383
1300766607623,99.0659
1300766667623,99.5206
1300766727623,98.4414
1300766787623,99.2625
1300766847623,99.4451
1300766907623,99.0336
1300766967623,99.2608
1300767027623,99.1390
1300767087623,98.9891
1300767147623,98.9029
1300767207623,99.0871
1300767267623,98.9394
1300767327623,99.0632
1300767387623,98.9296
1300767447623,99.1835
1300767507623,98.9388
1300767567623,98.8705
1300767627623,98.5247
1300767687623,98.8036
1300767747623,98.3377
1300767807623,98.5924
1300767867623,99.1461
1300767927623,98.9431
1300767987623,99.3347
1300768047623,98.8232
1300768107623,98.8284
1300768167623,99.0438
1300768227623,98.6229
1300768287623,98.8212
1300768347623,98.6312
1300768407623,98.7788
1300768467623,98.6603
1300768527623,98.3592
1300768587623,98.9925
1300768647623,98.8641
1300768707623,98.8578
1300768767623,98.7377
1300768827623,98.3932
1300768887623,98.9664
1300768947623,98.6007
1300769007623,98.3410
1300769067623,98.3892
1300769127623,98.2114
1300769187623,98.8312
1300769247623,98.8796
1300769307623,99.3858
1300769367623,98.9326
1300769427623,98.6317
1300769487623,99.1051
1300769547623,98.6052
1300769607623,98.3114
1300769667623,98.5337
1300769727623,98.6934
1300769787623,98.5389
1300769847623,98.7717
1300769907623,98.9840
1300769967623,99.1184
1300770027635,98.6306
1300770087635,98.8150
1300770147635,98.8840
1300770207635,98.8522
1300770267635,98.8615
1300770327635,98.8695
1300770387635,98.7238
1300770447635,98.9338
1300770507635,98.8637
1300770567635,98.6044
1300770627635,98.6795
1300770687635,98.4959
1300770747635,98.0347
1300770807635,98.1084
1300770867635,98.7949
1300770927635,98.7693
1300770987635,98.4291
1300771047635,98.8845
1300771107635,98.8983
1300771167635,98.7495
1300771227635,98.4114
1300771287635,99.1477
1300771347635,98.6035
1300771407635,98.4978
1300771467635,98.7745
1300771527635,99.2396
1300771587635,99.0829
1300771647635,98.8802
1300771707635,99.2436
1300771767635,98.8892
1300771827635,99.2890
1300771887635,99.2270
1300771947635,98.9014
1300772007635,99.0451
1300772067635,98.9781
1300772127635,98.5885
1300772187635,99.0875
1300772247635,98.7602
1300772307635,98.9002
1300772367635,98.8134
1300772427635,99.3793
1300772487635,98.9430
1300772547635,99.1754
1300772607635,98.7182
1300772667635,99.5436
1300772727635,98.7620
1300772787635,98.6710
1300772847635,99.0904
1300772907635,98.5994
1300772967635,99.2195
1300773027635,99.4081
1300773087635,99.0133
1300773147635,99.5217
1300773207635,99.3022
1300773267635,99.0158
1300773327635,99.0711
1300773387635,98.8013
1300773447635,99.4529
1300773507635,98.7647
1300773567635,98.9713
1300773627647,99.0463
1300773687647,98.7121
1300773747647,99.3032
1300773807647,99.2767
1300773867647,99.5294
1300773927647,98.9895
1300773987647,99.6025
1300774047647,99.0041
1300774107647,99.5502
1300774167647,98.7370
1300774227647,99.3325
1300774287647,99.2288
1300774347647,99.4894
1300774407647,99.5312
1300774467647,100.064
1300774527647,99.4089
1300774587647,99.1292
1300774647647,99.3991
1300774707647,98.6882
1300788027691,101.676
1300788087691,101.949
1300788147691,101.622
1300788207691,102.273
1300788267691,102.035
1300788327691,101.847
1300788387691,101.940
1300788447691,102.581
1300788507691,101.766
1300788567691,102.338
1300788627691,102.284
1300788687691,102.368
1300788747691,101.971
1300788807691,102.368
1300788867691,102.750
1300788927691,102.356
1300788987691,102.332
1300789047691,102.570
1300789107691,102.120
1300789167691,102.617
1300789227691,102.736
1300789287691,102.086
1300789347691,102.651
1300789407691,102.035
1300789467691,102.265
1300789527691,101.813
1300789587691,102.400
1300789647691,102.941
1300789707691,102.614
1300789767691,102.336
1300789827691,101.991
1300789887691,103.034
1300789947691,102.486
1300790007691,102.190
1300790067691,102.429
1300790127691,102.501
1300790187691,102.687
1300790247691,102.592
1300790307691,102.521
1300790367691,102.899
1300790427691,102.335
1300790487691,102.535
1300790547691,102.948
1300790607691,102.640
1300790667691,102.604
1300790727691,102.613
1300790787691,102.823
1300790847691,102.413
1300790907691,102.620
1300790967691,102.723
1300791027691,102.234
1300791087691,102.332
1300791147691,102.276
1300791207691,102.280
1300791267691,102.431
1300791327691,102.965
1300791387691,102.956
1300791447691,102.775
1300791507691,102.326
1300791567691,102.331
1300791627703,102.493
1300791687703,102.779
1300791747703,102.400
1300791807703,102.088
1300791867703,102.351
1300791927703,102.484
1300791987703,102.430
1300792047703,102.355
1300792107703,102.593
1300792167703,101.943
1300792227703,102.445
1300792287703,101.760
1300792347703,102.180
1300792407703,102.125
1300792467703,102.586
1300792527703,102.974
1300792587703,102.551
1300792647703,102.059
1300792707703,102.609
1300792767703,102.320
1300792827703,102.349
1300792887703,102.395
1300792947703,102.454
1300793007703,102.648
1300793067703,102.568
1300793127703,102.304
1300793187703,102.459
1300793247703,101.799
1300793307703,102.053
1300793367703,102.094
1300793427703,102.202
1300793487703,102.409
1300793547703,102.298
1300793607703,101.942
1300793667703,102.285
1300793727703,101.893
1300793787703,102.038
1300793847703,101.414
1300793907703,102.241
1300793967703,102.661
1300794027703,102.220
1300794087703,102.274
1300794147703,102.182
1300794207703,101.995
1300794267703,102.321
1300794327703,102.132
1300794387703,101.944
1300794447703,102.237
1300794507703,102.217
1300794567703,102.238
1300794627703,101.914
1300794687703,102.164
1300794747703,101.930
1300794807703,102.144
1300794867703,102.080
1300794927703,102.077
1300794987703,102.071
1300795047703,101.946
1300795107703,101.479
1300795167703,102.340
1300795227714,102.013
1300795287714,101.691
1300795347714,101.961
1300795407714,101.754
1300795467714,101.992
1300795527714,102.172
1300795587714,102.028
1300795647715,101.757
1300795707715,101.787
1300795767715,102.004
1300795827715,101.539
1300795887714,101.673
1300795947714,101.732
1300796007715,102.090
1300796067715,101.935
1300796127715,101.733
1300796187715,101.753
1300796247715,102.384
1300796307715,101.990
1300796367715,101.977
1300796427715,101.784
1300796487715,101.571
1300796547714,101.474
1300796607714,102.118
1300796667714,102.164
1300796727714,102.074
1300796787714,101.969
1300796847714,101.893
1300796907714,102.558
1300796967714,102.190
1300797027715,102.470
1300797087715,102.107
1300797147715,101.720
1300797207715,101.898
1300797267714,102.102
1300797327715,101.927
1300797387715,102.210
1300797447715,102.604
1300797507715,101.906
1300797567715,102.229
1300797627715,102.109
1300797687715,102.094
1300797747715,102.240
1300797807715,102.789
1300797867715,102.052
1300797927714,102.432
1300797987714,102.225
1300798047714,101.970
1300798107714,102.396
1300798167714,101.989
1300798227714,102.110
1300798287714,102.475
1300798347715,102.743
1300798407715,101.966
1300798467715,101.662
1300798527715,102.122
1300798587714,101.946
1300798647714,102.051
1300798707715,102.129
1300798767715,102.157
1300798827726,102.054
1300798887726,101.824
1300798947726,102.451
1300799007726,102.213
1300799067726,102.651
1300799127726,101.983
1300799187726,102.125
1300799247726,102.168
1300799307726,102.331
1300799367726,102.367
1300799427726,102.098
1300799487726,102.201
1300799547726,102.026
1300799607726,102.125
1300799667726,102.068
1300799727726,102.145
1300799787726,101.934
1300799847726,102.305
1300799907726,103.013
1300799967726,102.136
1300800027726,102.377
1300800087726,102.466
1300800147726,102.768
1300800207726,102.261
1300800267726,102.339
1300800327726,102.386
1300800387726,102.480
1300800447726,102.084
1300800507726,102.519
1300800567726,102.336
1300800627726,102.227
1300800687726,102.253
1300800747726,102.410
1300800807726,102.257
1300800867726,102.765
1300800927726,102.890
1300800987726,102.585
1300801047726,102.996
1300801107726,102.304
1300801167726,102.627
1300801227726,102.718
1300801287726,102.785
1300801347726,102.607
1300801407726,102.972
1300801467726,102.512
1300801527726,102.540
1300801587726,102.554
1300801647726,102.437
1300801707726,102.406
1300801767726,102.074
1300801827726,102.477
1300801887726,102.209
1300801947726,102.585
1300802007726,102.854
1300802067726,102.649
1300802127726,102.580
1300802187726,102.293
1300802247726,102.239
1300802307726,102.539
1300802367726,102.559
1300802427738,102.300
1300802487738,102.727
1300802547738,102.678
1300802607738,102.130
1300802667738,102.273
1300802727738,102.659
1300802787738,102.834
1300802847738,102.327
1300802907738,102.744
1300802967738,102.990
1300803027738,102.064
1300803087738,102.918
1300803147738,102.588
1300803207738,102.446
1300803267738,102.347
1300803327738,102.451
1300803387738,102.153
1300803447738,102.672
1300803507738,102.500
1300803567738,102.653
1300803627738,102.154
1300803687738,102.609
1300803747738,102.394
1300803807738,102.949
1300803867738,102.939
1300803927738,102.446
1300803987738,102.916
1300804047738,102.443
1300804107738,102.393
1300804167738,102.881
1300804227738,102.710
1300804287738,102.741
1300804347738,102.585
1300804407738,102.695
1300804467738,102.851
1300804527738,102.988
1300804587738,102.689
1300804647738,102.764
1300804707738,102.906
1300804767738,102.935
1300804827738,102.398
1300804887738,102.764
1300804947738,103.118
1300805007738,102.817
1300805067738,103.055
1300805127738,103.117
1300805187738,102.865
1300805247738,103.358
1300805307738,103.201
1300805367738,103.074
1300805427738,102.962
1300805487738,103.355
1300805547738,103.462
1300805607738,103.492
1300805667738,102.728
1300805727738,103.042
1300805787738,102.806
1300805847738,103.643
1300805907738,102.735
1300805967738,103.171
1300806027750,103.816
1300806087750,103.561
1300806147750,103.914
1300806207750,103.707
1300806267750,103.633
1300806327750,103.296
1300806387750,103.457
1300806447750,103.437
1300806507750,104.102
1300806567750,103.834
1300806627750,103.739
1300806687750,103.592
1300806747750,104.238
1300806807750,103.738
1300806867750,103.424
1300806927750,103.820
1300806987750,104.134
1300807047750,103.855
1300807107750,103.839
1300807167750,104.455
1300807227750,104.046
1300807287750,104.155
1300807347750,104.329
1300807407750,104.162
1300807467750,104.106
1300807527750,103.954
1300807587750,104.118
1300807647750,103.909
1300807707750,104.547
1300807767750,104.820
1300807827750,104.244
1300807887750,104.260
1300807947750,104.133
1300808007750,104.336
1300808067750,104.201
1300808127750,104.584
1300808187750,104.356
1300808247750,104.252
1300808307750,104.035
1300808367750,104.530
1300808427750,104.005
1300808487750,104.799
1300808547750,104.300
1300808607750,104.635
1300808667750,104.050
1300808727750,104.438
1300808787750,104.521
1300808847750,104.675
1300808907750,104.535
1300808967750,104.178
1300809027750,103.955
1300809087750,103.976
1300809147750,103.938
1300809207750,103.827
1300809267750,104.089
1300809327750,104.785
1300809387750,104.235
1300809447750,104.365
1300809507750,104.159
1300809567750,104.090
1300809627761,104.193
1300809687761,104.161
1300809747761,104.423
1300809807761,103.911
1300809867761,104.158
1300809927761,104.091
1300809987761,103.904
1300810047761,103.925
1300810107761,103.669
1300810167761,104.249
1300810227761,103.926
1300810287761,103.746
1300810347761,104.007
1300810407761,103.634
1300810467761,103.717
1300810527761,103.807
1300810587761,103.860
1300810647761,103.363
1300810707761,103.853
1300810767761,103.737
1300810827761,103.698
1300810887761,103.521
1300810947761,103.296
1300811007761,103.503
1300811067761,103.566
1300811127761,103.246
1300811187761,103.814
1300811247761,103.719
1300811307761,103.388
1300811367761,103.260
1300811427761,103.847
1300811487761,102.980
1300811547761,103.176
1300811607761,103.209
1300811667761,103.641
1300811727761,103.064
1300811787761,103.636
1300811847761,103.853
1300811907761,103.712
1300811967761,103.043
1300812027761,103.560
1300812087761,103.764
1300812147761,103.549
1300812207761,103.171
1300812267761,103.080
1300812327761,103.298
1300812387761,103.519
1300812447761,103.327
1300812507761,103.198
1300812567761,103.389
1300812627761,102.940
1300812687761,103.009
1300812747761,103.144
1300812807761,103.109
1300812867761,103.453
1300812927761,103.172
1300812987761,103.567
1300813047761,103.196
1300813107761,103.439
1300813167761,103.272
1300813227773,102.724
1300813287773,103.135
1300813347773,103.241
1300813407773,103.528
1300813467773,103.169
1300813527773,103.667
1300813587773,103.090
1300813647773,103.373
1300813707773,103.008
1300813767773,103.235
1300813827773,103.034
1300813887773,103.064
1300813947773,103.357
1300814007773,102.654
1300814067773,103.252
1300814127773,103.292
1300814187773,103.110
1300814247773,103.078
1300814307773,103.060
1300814367773,102.954
1300814427773,103.315
1300814487773,103.007
1300814547773,103.140
1300814607773,103.024
1300814667773,102.799
1300814727773,103.342
1300814787773,103.345
1300814847773,103.257
1300814907773,103.038
1300814967773,103.161
1300815027773,103.264
1300815087773,103.530
1300815147773,103.179
1300815207773,103.424
1300815267773,103.074
1300815327773,103.283
1300815387773,103.450
1300815447773,103.351
1300815507773,103.462
1300815567773,103.462
1300815627773,103.294
1300815687773,102.958
1300815747773,102.819
1300815807773,103.280
1300815867773,103.326
1300815927773,103.622
1300815987773,103.553
1300816047773,103.528
1300816107773,103.166
1300816167773,103.045
1300816227773,103.529
1300816287773,103.264
1300816347773,103.702
1300816407773,102.946
1300816467773,103.700
1300816527773,103.919
1300816587773,103.591
1300816647773,103.424
1300816707773,103.391
1300816767773,103.036
1300816827784,103.382
1300816887784,103.191
1300816947784,103.507
1300817007784,103.072
1300817067784,103.703
1300817127784,103.415
1300817187784,102.990
1300817247784,103.101
1300817307784,104.143
1300817367784,103.516
1300817427784,103.956
1300817487784,103.818
1300817547784,103.311
1300817607784,103.732
1300817667784,103.910
1300817727784,103.610
1300817787784,103.704
1300817847784,103.660
1300817907784,103.609
1300817967784,103.339
1300818027784,104.020
1300818087784,103.970
1300818147784,103.425
1300818207784,103.539
1300818267784,103.403
1300818327784,103.592
1300818387784,103.712
1300818447784,103.536
1300818507784,103.741
1300818567784,103.382
1300818627784,103.085
1300818687784,103.520
1300818747784,103.581
1300818807784,103.729
1300818867784,103.829
1300818927784,103.818
1300818987784,103.756
1300819047784,104.051
1300819107784,103.731
1300819167784,103.548
1300819227784,103.823
1300819287784,104.010
1300819347784,103.914
1300819407784,103.395
1300819467784,103.694
1300819527784,103.668
1300819587784,103.406
1300819647784,104.194
1300819707784,103.670
1300819767784,103.602
1300819827784,103.448
1300819887784,103.661
1300819947784,103.726
1300820007784,104.006
1300820067784,103.882
1300820127784,104.242
1300820187784,104.410
1300820247784,104.002
1300820307784,103.956
1300820367784,103.996
1300820427796,103.763
1300820487796,103.537
1300820547796,104.281
1300820607796,104.266
1300820667796,103.789
1300820727796,103.738
1300820787796,103.764
1300820847796,103.818
1300820907796,103.921
1300820967796,103.977
1300821027796,104.205
1300821087796,104.014
1300821147796,103.923
1300821207796,104.251
1300821267796,104.496
1300821327796,103.836
1300821387796,103.850
1300821447796,104.233
1300821507796,103.729
1300821567796,103.801
1300821627796,104.029
1300821687796,104.017
1300821747796,104.380
1300821807796,103.876
1300821867796,103.884
1300821927796,103.953
1300821987796,103.558
1300822047796,103.988
1300822107796,104.052
1300822167796,104.537
1300822227796,103.701
1300822287796,104.246
1300822347796,104.149
1300822407796,104.312
1300822467796,104.267
1300822527796,103.931
1300822587796,104.379
1300822647796,104.836
1300822707796,104.238
1300822767796,104.125
1300822827796,104.141
1300822887796,104.071
1300822947796,104.224
1300823007796,103.954
1300823067796,104.270
1300823127796,104.326
1300823187796,104.320
1300823247796,104.374
1300823307796,104.120
1300823367796,104.284
1300823427796,104.200
1300823487796,104.797
1300823547796,104.401
1300823607796,105.340
1300823667796,104.323
1300823727796,104.422
1300823787796,104.519
1300823847796,104.713
1300823907796,104.137
1300823967796,104.569
1300824027807,104.797
1300824087807,104.696
1300824147807,104.576
1300824207807,104.360
1300824267807,104.097
1300824327807,104.198
1300824387807,104.535
1300824447807,104.676
1300824507807,104.462
1300824567807,104.072
1300824627807,104.404
1300824687807,104.946
1300824747807,103.969
1300824807807,104.281
1300824867807,104.557
1300824927807,103.733
1300824987807,104.157
1300825047807,104.578
1300825107807,104.827
1300825167807,104.201
1300825227807,104.535
1300825287807,104.366
1300825347807,104.039
1300825407807,104.724
1300825467807,104.016
1300825527807,103.785
1300825587807,104.157
1300825647807,103.700
1300825707807,104.357
1300825767807,104.062
1300825827807,104.038
1300825887807,104.366
1300825947807,104.382
1300826007807,104.284
1300826067807,103.687
1300826127807,104.101
1300826187807,104.034
1300826247807,104.320
1300826307807,104.337
1300826367807,104.356
1300826427807,104.626
1300826487807,103.836
1300826547807,104.171
1300826607807,104.246
1300826667807,104.323
1300826727807,104.176
1300826787807,104.280
1300826847807,104.035
1300826907807,103.982
1300826967807,104.044
1300827027807,103.891
1300827087807,104.467
1300827147807,104.129
1300827207807,103.981
1300827267807,104.308
1300827327807,104.180
1300827387807,104.055
1300827447807,103.782
1300827507807,104.254
1300827567807,104.077
1300827627819,103.660
1300827687819,103.939
1300827747819,103.540
1300827807819,104.118
1300827867819,104.121
1300827927819,104.094
1300827987819,103.977
1300828047819,103.713
1300828107819,103.803
1300828167819,103.553
1300828227819,103.655
1300828287819,103.546
1300828347819,103.760
1300828407819,104.640
1300828467819,103.633
1300828527819,103.565
1300828587819,103.469
1300828647819,103.517
1300828707819,103.593
1300828767819,103.076
1300828827819,103.310
1300828887819,103.299
1300828947819,103.696
1300829007819,103.635
1300829067819,103.232
1300829127819,103.698
1300829187819,103.358
1300829247819,103.565
1300829307819,103.400
1300829367819,103.461
1300829427819,103.286
1300829487819,103.005
1300829547819,103.597
1300829607819,103.592
1300829667819,103.521
1300829727819,103.601
1300829787819,103.828
1300829847819,103.310
1300829907819,103.033
1300829967819,103.368
1300830027819,103.201
1300830087819,103.176
1300830147819,103.168
1300830207819,103.153
1300830267819,103.473
1300830327819,103.698
1300830387819,103.265
1300830447819,103.564
1300830507819,103.471
1300830567819,103.628
1300830627819,103.424
1300830687819,103.605
1300830747819,102.960
1300830807819,103.442
1300830867819,103.903
1300830927819,103.492
1300830987819,103.422
1300831047819,103.256
1300831107819,103.742